time_stamp(utc),avg(mph),gust(mph),direction(deg),12m_air_temp(f),sonic_u(cm/s),sonic_v(cm/s),sonic_w(cm/s),pressure,2m_air_temp(f),pyranometer(W/m^2)
"2021-01-24 00:02:39+00",14.2,16.2,,30.2,-567,303,42,1022.47,29.6,0
"2021-01-24 00:07:39+00",15.3,19.3,,30.2,-610,327,42,1022.6,29.6,0
"2021-01-24 00:12:39+00",18.2,21.2,,30.2,-745,368,43,1022.66,29.5,0
"2021-01-24 00:17:39+00",17.8,20.8,,30,-730,396,34,1022.66,29.4,0
"2021-01-24 00:22:39+00",18.7,20.7,,29.9,-789,351,29,1022.84,29.3,0
"2021-01-24 00:27:39+00",15.6,18.6,,29.8,-652,266,19,1022.79,29.3,0
"2021-01-24 00:32:39+00",13.0,15.0,,29.7,-526,259,35,1022.84,29.1,0
"2021-01-24 00:37:39+00",15.4,16.4,,29.8,-623,322,17,1022.8,29,0
"2021-01-24 00:42:39+00",15.8,17.8,,29.7,-617,355,27,1022.76,29,0
"2021-01-24 00:47:39+00",15.2,17.2,,29.6,-584,347,27,1022.67,28.9,0
"2021-01-24 00:52:39+00",13.7,15.7,,29.6,-489,385,44,1022.75,28.9,0
"2021-01-24 00:57:39+00",15.0,17.0,,29.5,-583,357,22,1022.86,28.8,0
"2021-01-24 01:02:39+00",15.2,17.2,,29.4,-543,404,22,1022.91,28.7,0
"2021-01-24 01:07:39+00",13.0,16.0,,29.3,-478,325,33,1022.95,28.6,0
"2021-01-24 01:12:39+00",14.6,16.6,,29.2,-508,413,17,1023.03,28.5,0
"2021-01-24 01:17:39+00",12.6,14.6,,29.1,-457,334,37,1022.9,28.4,0
"2021-01-24 01:22:39+00",12.5,13.5,,29,-459,317,29,1022.98,28.3,0
"2021-01-24 01:27:39+00",12.8,15.8,,29,-499,297,29,1022.99,28.3,0
"2021-01-24 01:32:39+00",12.6,13.6,,28.9,-505,273,16,1022.97,28.1,0
"2021-01-24 01:37:39+00",13.8,15.8,,28.9,-510,342,9,1022.91,28.1,0
"2021-01-24 01:42:39+00",13.6,14.6,,28.9,-552,261,31,1022.96,28.1,0
"2021-01-24 01:47:39+00",12.5,14.5,,28.9,-510,211,32,1023.09,28,0
"2021-01-24 01:52:39+00",13.0,17.0,,28.7,-551,225,38,1023.2,28,0
"2021-01-24 01:57:39+00",16.4,19.4,,28.9,-667,319,28,1023.18,27.9,0
"2021-01-24 02:02:39+00",13.5,15.5,,28.9,-575,208,39,1023.16,28,0
"2021-01-24 02:07:39+00",14.0,17.0,,28.8,-587,214,24,1023.08,28,0
"2021-01-24 02:12:39+00",13.1,15.1,,28.7,-531,241,44,1023.07,27.9,0
"2021-01-24 02:17:39+00",19.6,21.6,,28.9,-816,358,25,1023.11,28,0
"2021-01-24 02:22:39+00",16.8,18.8,,28.9,-671,318,28,1023.25,28.1,0
"2021-01-24 02:27:39+00",18.5,21.5,,29,-715,420,53,1023.21,28.1,0
"2021-01-24 02:32:39+00",20.6,22.6,,28.8,-804,461,22,1023.15,28.1,0
"2021-01-24 02:37:39+00",18.4,22.4,,28.7,-652,478,61,1023.22,28.1,0
"2021-01-24 02:42:39+00",19.4,25.4,,28.6,-656,553,43,1023.12,28,0
"2021-01-24 02:47:39+00",17.8,20.8,,28.7,-630,534,62,1023.41,28,0
"2021-01-24 02:52:39+00",17.2,19.2,,28.6,-602,486,44,1023.39,28,0
"2021-01-24 02:57:39+00",15.7,17.7,,28.4,-564,405,44,1023.37,27.8,0
"2021-01-24 03:02:39+00",14.6,16.6,,28.4,-531,383,34,1023.52,27.7,0
"2021-01-24 03:07:39+00",14.7,16.7,,28.4,-549,394,19,1023.34,27.6,0
"2021-01-24 03:12:39+00",12.6,13.6,,28.2,-484,319,28,1023.43,27.5,0
"2021-01-24 03:17:39+00",11.9,14.9,,28.2,-464,282,38,1023.48,27.4,0
"2021-01-24 03:22:39+00",14.9,15.9,,28.2,-594,310,30,1023.5,27.3,0
"2021-01-24 03:27:39+00",12.5,15.5,,28,-499,280,8,1023.55,27.2,0
"2021-01-24 03:32:39+00",10.9,12.9,,27.9,-405,255,33,1023.57,27.1,0
"2021-01-24 03:37:39+00",12.1,14.1,,27.8,-466,285,27,1023.56,27,0
"2021-01-24 03:42:39+00",12.2,15.2,,27.6,-479,291,21,1023.58,26.8,0
"2021-01-24 03:47:39+00",11.4,13.4,,27.3,-438,280,24,1023.53,26.6,0
"2021-01-24 03:52:39+00",12.0,13.0,,27.3,-478,277,34,1023.53,26.5,0
"2021-01-24 03:57:39+00",12.9,14.9,,27.5,-469,328,23,1023.6,26.5,0
"2021-01-24 04:02:39+00",13.6,16.6,,27.5,-475,386,46,1023.52,26.5,0
"2021-01-24 04:07:39+00",17.8,19.8,,27.7,-703,439,86,1023.53,26.6,0
"2021-01-24 04:12:39+00",16.2,18.2,,27.5,-468,560,27,1023.54,26.7,0
"2021-01-24 04:17:39+00",18.0,19.0,,27.5,-598,544,28,1023.49,26.7,0
"2021-01-24 04:22:39+00",16.4,18.4,,27.4,-602,449,58,1023.55,26.7,0
"2021-01-24 04:27:39+00",13.4,15.4,,27.3,-445,386,47,1023.6,26.7,0
"2021-01-24 04:32:39+00",15.4,17.4,,27.2,-503,444,35,1023.67,26.6,0
"2021-01-24 04:37:39+00",13.1,14.1,,27.1,-508,307,32,1023.66,26.5,0
"2021-01-24 04:42:39+00",16.3,19.3,,27,-574,445,33,1023.73,26.3,0
"2021-01-24 04:47:39+00",14.6,16.6,,26.9,-509,419,26,1023.79,26.3,0
"2021-01-24 04:52:39+00",13.1,14.1,,26.8,-438,383,32,1023.77,26.2,0
"2021-01-24 04:57:39+00",11.4,14.4,,26.6,-406,322,42,1023.66,26,0
"2021-01-24 05:02:39+00",13.8,14.8,,26.6,-475,403,20,1023.64,25.9,0
"2021-01-24 05:07:39+00",15.6,17.6,,26.6,-547,453,27,1023.56,25.9,0
"2021-01-24 05:12:39+00",13.6,15.6,,26.5,-485,375,37,1023.55,25.8,0
"2021-01-24 05:17:39+00",17.2,19.2,,26.5,-616,470,16,1023.55,25.8,0
"2021-01-24 05:22:39+00",17.9,23.9,,26.6,-708,440,48,1023.43,25.8,0
"2021-01-24 05:27:39+00",16.9,20.9,,26.7,-659,440,56,1023.49,26,0
"2021-01-24 05:32:39+00",18.0,22.0,,26.5,-513,613,26,1023.43,26,0
"2021-01-24 05:37:39+00",17.3,22.3,,26.4,-502,612,37,1023.34,25.9,0
"2021-01-24 05:42:39+00",16.3,18.3,,26.2,-453,567,36,1023.43,25.7,0
"2021-01-24 05:47:39+00",17.4,20.4,,26.1,-506,586,36,1023.46,25.6,0
"2021-01-24 05:52:39+00",15.1,18.1,,26.1,-459,485,52,1023.41,25.6,0
"2021-01-24 05:57:39+00",15.3,18.3,,26.1,-475,483,38,1023.44,25.5,0
"2021-01-24 06:02:39+00",14.1,15.1,,26.2,-359,505,11,1023.5,25.5,0
"2021-01-24 06:07:39+00",14.2,18.2,,26.2,-486,447,55,1023.59,25.5,0
"2021-01-24 06:12:39+00",14.4,16.4,,26.2,-428,474,53,1023.62,25.6,0
"2021-01-24 06:17:39+00",16.6,18.6,,26.5,-619,457,29,1023.57,25.8,0
"2021-01-24 06:22:39+00",17.6,19.6,,26.5,-649,483,40,1023.74,25.9,0
"2021-01-24 06:27:39+00",13.7,15.7,,26.5,-461,398,36,1023.71,25.9,0
"2021-01-24 06:32:39+00",16.7,18.7,,26.5,-596,463,39,1023.75,26,0
"2021-01-24 06:37:39+00",16.1,18.1,,26.4,-539,489,24,1023.78,25.9,0
"2021-01-24 06:42:39+00",12.6,14.6,,26.3,-455,331,22,1023.84,25.9,0
"2021-01-24 06:47:39+00",12.8,15.8,,26.2,-491,307,26,1023.73,25.7,0
"2021-01-24 06:52:39+00",13.3,15.3,,26.1,-498,337,20,1023.77,25.6,0
"2021-01-24 06:57:39+00",14.0,17.0,,26.1,-570,301,32,1023.75,25.5,0
"2021-01-24 07:02:39+00",13.1,16.1,,26.1,-402,397,55,1023.84,25.6,0
"2021-01-24 07:07:39+00",14.8,16.8,,26,-526,423,41,1023.87,25.6,0
"2021-01-24 07:12:39+00",15.5,16.5,,25.9,-577,400,43,1023.9,25.5,0
"2021-01-24 07:17:39+00",16.0,19.0,,25.8,-524,490,19,1023.81,25.4,0
"2021-01-24 07:22:39+00",11.9,13.9,,25.7,-392,371,70,1023.85,25.3,0
"2021-01-24 07:27:39+00",19.5,22.5,,25.6,-551,664,33,1023.77,25.2,0
"2021-01-24 07:32:39+00",17.6,20.6,,25.4,-497,591,41,1023.76,25,0
"2021-01-24 07:37:39+00",16.2,19.2,,25.2,-473,541,41,1023.8,24.8,0
"2021-01-24 07:42:39+00",17.9,18.9,,25.2,-501,630,28,1023.79,24.7,0
"2021-01-24 07:47:39+00",16.6,18.6,,25.1,-430,587,48,1023.74,24.7,0
"2021-01-24 07:52:39+00",14.8,17.8,,25,-407,510,39,1023.77,24.5,0
"2021-01-24 07:57:39+00",16.3,18.3,,25.1,-465,549,51,1023.77,24.5,0
"2021-01-24 08:02:39+00",15.5,17.5,,25.1,-459,518,34,1023.9,24.5,0
"2021-01-24 08:07:39+00",17.2,20.2,,25.2,-522,547,41,1023.87,24.5,0
"2021-01-24 08:12:39+00",15.5,17.5,,25,-407,558,18,1023.87,24.5,0
"2021-01-24 08:17:39+00",14.7,18.7,,24.9,-371,538,23,1023.89,24.4,0
"2021-01-24 08:22:39+00",13.1,15.1,,24.8,-392,442,34,1023.89,24.3,0
"2021-01-24 08:27:39+00",15.6,17.6,,24.8,-446,547,41,1023.86,24.2,0
"2021-01-24 08:32:39+00",15.6,18.6,,24.7,-403,558,35,1023.87,24.2,0
"2021-01-24 08:37:39+00",13.5,15.5,,24.7,-391,451,53,1024.03,24.2,0
"2021-01-24 08:42:39+00",14.6,16.6,,24.7,-366,536,17,1024.03,24.3,0
"2021-01-24 08:47:39+00",17.5,20.5,,24.7,-527,578,22,1023.96,24.2,0
"2021-01-24 08:52:39+00",15.3,19.3,,24.7,-440,525,35,1024.06,24.3,0
"2021-01-24 08:57:39+00",16.2,19.2,,24.8,-522,530,41,1024,24.3,0
"2021-01-24 09:02:39+00",20.7,25.7,,24.8,-624,663,54,1023.99,24.3,0
"2021-01-24 09:07:39+00",19.7,20.7,,24.8,-586,653,40,1024.06,24.4,0
"2021-01-24 09:12:39+00",17.0,21.0,,24.8,-539,542,47,1023.96,24.4,0
"2021-01-24 09:17:39+00",20.6,23.6,,24.8,-659,627,36,1023.88,24.4,0
"2021-01-24 09:22:39+00",21.9,22.9,,24.8,-690,689,42,1023.96,24.5,0
"2021-01-24 09:27:39+00",20.0,23.0,,24.9,-715,541,50,1024.09,24.6,0
"2021-01-24 09:32:39+00",22.3,25.3,,25,-707,710,51,1024.04,24.7,0
"2021-01-24 09:37:39+00",22.1,25.1,,25,-761,637,64,1024.04,24.7,0
"2021-01-24 09:42:39+00",21.4,24.4,,25,-812,568,62,1024.1,24.8,0
"2021-01-24 09:47:39+00",22.2,24.2,,25,-837,566,34,1024.03,24.7,0
"2021-01-24 09:52:39+00",19.2,21.2,,24.9,-694,512,39,1024.05,24.7,0
"2021-01-24 09:57:39+00",20.3,22.3,,24.8,-767,505,37,1024.03,24.6,0
"2021-01-24 10:02:39+00",20.6,22.6,,24.9,-738,575,46,1024.08,24.6,0
"2021-01-24 10:07:39+00",22.6,24.6,,24.9,-834,582,55,1024.05,24.7,0
"2021-01-24 10:12:39+00",15.4,18.4,,24.9,-548,438,62,1024,24.7,0
"2021-01-24 10:17:39+00",22.8,27.8,,24.7,-776,670,57,1024.02,24.5,0
"2021-01-24 10:22:39+00",20.1,22.1,,24.8,-717,547,27,1024.11,24.5,0
"2021-01-24 10:27:39+00",18.6,22.6,,24.6,-631,520,47,1024.11,24.4,0
"2021-01-24 10:32:39+00",17.4,20.4,,24.6,-601,465,42,1024.05,24.3,0
"2021-01-24 10:37:39+00",21.5,24.5,,24.6,-750,597,27,1024.14,24.3,0
"2021-01-24 10:42:39+00",15.0,18.0,,24.5,-521,422,46,1024.26,24.3,0
"2021-01-24 10:47:39+00",16.8,20.8,,24.6,-639,435,59,1024.36,24.3,0
"2021-01-24 10:52:39+00",17.0,20.0,,24.7,-604,490,46,1024.44,24.3,0
"2021-01-24 10:57:39+00",15.8,17.8,,24.7,-547,439,50,1024.44,24.3,0
"2021-01-24 11:02:39+00",17.9,20.9,,24.5,-574,559,45,1024.49,24.3,0
"2021-01-24 11:07:39+00",17.5,19.5,,24.5,-518,576,39,1024.47,24.2,0
"2021-01-24 11:12:39+00",19.4,22.4,,24.4,-740,518,60,1024.47,24.1,0
"2021-01-24 11:17:39+00",17.2,21.2,,24.4,-537,536,44,1024.45,24.1,0
"2021-01-24 11:22:39+00",17.8,21.8,,24.4,-675,447,59,1024.32,24.1,0
"2021-01-24 11:27:39+00",18.5,20.5,,24.4,-668,511,37,1024.42,24.1,0
"2021-01-24 11:32:39+00",19.1,22.1,,24.2,-693,497,48,1024.52,24,0
"2021-01-24 11:37:39+00",18.3,21.3,,24.1,-727,437,42,1024.6,23.9,0
"2021-01-24 11:42:39+00",15.6,17.6,,24.2,-580,400,40,1024.81,23.8,0
"2021-01-24 11:47:39+00",14.8,16.8,,24.2,-563,368,36,1024.82,23.9,0
"2021-01-24 11:52:39+00",19.3,22.3,,24,-686,505,13,1024.92,23.8,0
"2021-01-24 11:57:39+00",16.1,18.1,,24.1,-641,381,36,1025.11,23.8,0
"2021-01-24 12:02:39+00",18.2,20.2,,24,-682,464,28,1025.11,23.7,0
"2021-01-24 12:07:39+00",15.1,18.1,,23.9,-538,413,64,1025.04,23.6,0
"2021-01-24 12:12:39+00",19.8,21.8,,23.9,-684,569,39,1024.91,23.6,0
"2021-01-24 12:17:39+00",15.1,18.1,,24,-548,426,66,1024.95,23.7,0
"2021-01-24 12:22:39+00",17.5,19.5,,23.9,-649,482,31,1025.03,23.6,0
"2021-01-24 12:27:39+00",15.0,18.0,,23.9,-574,392,48,1024.99,23.6,0
"2021-01-24 12:32:39+00",16.4,18.4,,23.8,-632,372,56,1024.92,23.6,0
"2021-01-24 12:37:39+00",14.7,16.7,,23.9,-559,363,43,1024.9,23.6,0
"2021-01-24 12:42:39+00",15.2,17.2,,23.9,-549,396,58,1024.92,23.6,0
"2021-01-24 12:47:39+00",17.2,20.2,,23.9,-660,413,27,1024.95,23.7,0
"2021-01-24 12:52:39+00",16.2,18.2,,23.9,-604,390,37,1024.95,23.9,0
"2021-01-24 12:57:39+00",15.9,19.9,,24.1,-593,396,48,1024.87,24.3,0
"2021-01-24 13:02:39+00",16.6,19.6,,24,-573,483,47,1024.79,24.5,0
"2021-01-24 13:07:39+00",17.0,21.0,,24.1,-607,441,83,1024.84,24.7,0
"2021-01-24 13:12:39+00",20.5,23.5,,24.2,-694,594,56,1024.88,25,0
"2021-01-24 13:17:39+00",18.2,21.2,,24.3,-661,515,56,1024.87,25.1,0
"2021-01-24 13:22:39+00",15.6,18.6,,24.4,-546,446,44,1024.9,25.3,0
"2021-01-24 13:27:39+00",19.1,24.1,,24.5,-669,540,52,1024.85,25.5,0
"2021-01-24 13:32:39+00",16.6,19.6,,24.5,-477,580,56,1024.78,25.5,0
"2021-01-24 13:37:39+00",22.4,26.4,,24.5,-688,707,42,1024.7,25.6,0
"2021-01-24 13:42:39+00",18.5,20.5,,24.8,-608,540,26,1024.63,25.7,0
"2021-01-24 13:47:39+00",21.2,23.2,,24.7,-668,676,42,1024.7,25.8,0
"2021-01-24 13:52:39+00",18.0,22.0,,24.8,-411,675,82,1024.68,26,0
"2021-01-24 13:57:39+00",22.8,28.8,,25.2,-792,664,24,1024.63,26.2,0
"2021-01-24 14:02:39+00",18.9,22.9,,25,-702,479,104,1024.62,26.3,0
"2021-01-24 14:07:39+00",24.4,26.4,,24.9,-808,720,52,1024.56,26.4,0
"2021-01-24 14:12:39+00",22.4,25.4,,25.1,-672,728,43,1024.57,26.3,0
"2021-01-24 14:17:39+00",22.1,28.1,,25.3,-711,693,51,1024.55,26.5,0
"2021-01-24 14:22:39+00",20.9,23.9,,25.6,-506,790,49,1024.62,26.8,0
"2021-01-24 14:27:39+00",22.0,27.0,,25.5,-530,794,32,1024.71,27,0
"2021-01-24 14:32:39+00",18.5,22.5,,26.1,-557,637,78,1024.64,27.3,0
"2021-01-24 14:37:39+00",24.4,26.4,,25.7,-743,797,58,1024.59,27.2,0
"2021-01-24 14:42:39+00",22.6,29.6,,25.8,-651,727,45,1024.53,27.2,0
"2021-01-24 14:47:39+00",16.3,21.3,,26.1,-367,611,70,1024.61,27.4,0
"2021-01-24 14:52:39+00",20.6,24.6,,26,-501,749,43,1024.44,27.6,0
"2021-01-24 14:57:39+00",21.5,24.5,,26.4,-758,594,62,1024.19,28,0
"2021-01-24 15:02:39+00",20.4,24.4,,26.3,-779,541,46,1024.24,28.1,0
"2021-01-24 15:07:39+00",22.1,25.1,,26.1,-654,721,50,1024.16,28,0
"2021-01-24 15:12:39+00",15.8,17.8,,26.3,-554,450,54,1023.98,28,0
"2021-01-24 15:17:39+00",17.9,20.9,,26.5,-635,470,37,1023.99,28.4,0
"2021-01-24 15:22:39+00",23.9,25.9,,26.6,-807,695,54,1023.78,28.4,0
"2021-01-24 15:27:39+00",19.4,23.4,,26.9,-698,538,60,1023.89,28.5,0
"2021-01-24 15:32:39+00",16.1,18.1,,26.8,-436,567,56,1023.8,28.7,0
"2021-01-24 15:37:39+00",17.9,21.9,,27.2,-489,618,31,1023.63,29.1,0
"2021-01-24 15:42:39+00",17.2,20.2,,27.2,-557,537,42,1023.58,29.3,0
"2021-01-24 15:47:39+00",18.5,22.5,,27.3,-711,458,54,1023.44,29.5,0
"2021-01-24 15:52:39+00",20.3,22.3,,27.2,-780,484,42,1023.42,29.6,0
"2021-01-24 15:57:39+00",16.1,18.1,,27.2,-582,415,59,1023.32,29.4,0
"2021-01-24 16:02:39+00",19.1,22.1,,27.6,-649,560,41,1023.25,29.5,0
"2021-01-24 16:07:39+00",14.7,17.7,,27.7,-603,350,45,1022.95,29.6,0
"2021-01-24 16:12:39+00",20.7,23.7,,27.6,-653,640,49,1022.94,29.8,0
"2021-01-24 16:17:39+00",18.7,21.7,,27.9,-683,492,35,1022.91,30.1,0
"2021-01-24 16:22:39+00",16.4,18.4,,28.2,-579,454,71,1022.83,30.3,0
"2021-01-24 16:27:39+00",18.3,21.3,,28,-633,533,27,1022.75,30.4,0
"2021-01-24 16:32:39+00",17.1,19.1,,28.4,-664,392,39,1022.6,30.7,0
"2021-01-24 16:37:39+00",18.5,20.5,,28.6,-731,402,53,1022.53,31,0
"2021-01-24 16:42:39+00",18.0,20.0,,28.8,-722,373,51,1022.4,31.2,0
"2021-01-24 16:47:39+00",17.7,21.7,,29,-700,390,55,1022.3,31.6,0
"2021-01-24 16:52:39+00",15.6,18.6,,29.5,-557,427,81,1022.28,31.8,0
"2021-01-24 16:57:39+00",20.2,24.2,,29.1,-786,460,65,1022.04,31.9,0
"2021-01-24 17:02:39+00",22.3,24.3,,29,-883,503,29,1021.97,31.7,0
"2021-01-24 17:07:39+00",21.5,24.5,,29.5,-783,571,40,1021.87,31.6,0
"2021-01-24 17:12:39+00",19.2,22.2,,29.4,-710,529,60,1021.69,31.5,0
"2021-01-24 17:17:39+00",22.4,25.4,,29.4,-832,569,50,1021.58,31.7,0
"2021-01-24 17:22:39+00",22.7,25.7,,29.6,-932,459,42,1021.72,32,0
"2021-01-24 17:27:39+00",16.4,20.4,,29.7,-601,389,44,1021.75,32,0
"2021-01-24 17:32:39+00",19.6,23.6,,30.1,-752,455,32,1021.58,32.2,0
"2021-01-24 17:37:39+00",18.0,22.0,,29.9,-688,415,40,1021.41,32.1,0
"2021-01-24 17:42:39+00",16.9,18.9,,30.2,-627,409,33,1021.31,32.2,0
"2021-01-24 17:47:39+00",17.9,20.9,,30.7,-697,422,41,1021.34,32.5,0
"2021-01-24 17:52:39+00",18.7,22.7,,30.8,-790,321,64,1021.38,32.8,0
"2021-01-24 17:57:39+00",17.2,21.2,,31,-738,251,80,1021.33,33.4,0
"2021-01-24 18:02:39+00",17.2,22.2,,31.5,-621,478,132,1021.31,33.5,0
"2021-01-24 18:07:39+00",18.4,20.4,,31.1,-746,399,45,1021.33,33.1,0
"2021-01-24 18:12:39+00",18.4,21.4,,31.4,-770,283,57,1021.25,33.4,0
"2021-01-24 18:17:39+00",20.2,23.2,,31.2,-789,457,50,1021.22,33.7,0
"2021-01-24 18:22:39+00",19.1,22.1,,31.7,-762,397,36,1021.19,34.1,0
"2021-01-24 18:27:39+00",17.2,19.2,,31.4,-743,247,49,1021.16,34.1,0
"2021-01-24 18:32:39+00",19.7,21.7,,31.9,-798,407,47,1021.02,34.6,0
"2021-01-24 18:37:39+00",18.8,20.8,,31.7,-820,169,50,1021.09,34.6,0
"2021-01-24 18:42:39+00",14.9,18.9,,32.2,-512,431,75,1020.96,34.6,0
"2021-01-24 18:47:39+00",16.1,21.1,,32.7,-622,387,66,1021.09,34.6,0
"2021-01-24 18:52:39+00",20.0,23.0,,32.4,-844,337,31,1021.1,34.4,0
"2021-01-24 18:57:39+00",13.7,15.7,,32.4,-509,337,60,1021.17,34.7,0
"2021-01-24 19:02:39+00",19.5,21.5,,32.7,-648,592,39,1021.2,34.8,0
"2021-01-24 19:07:39+00",17.6,19.6,,32.1,-765,247,54,1021.03,34.6,0
"2021-01-24 19:12:39+00",16.4,19.4,,32.7,-666,332,46,1021.04,34.6,0
"2021-01-24 19:17:39+00",17.5,19.5,,32.9,-667,408,57,1020.93,34.9,0
"2021-01-24 19:22:39+00",18.7,22.7,,32.9,-741,402,36,1020.99,35.1,0
"2021-01-24 19:27:39+00",18.4,21.4,,32.9,-801,252,93,1021.03,35.1,0
"2021-01-24 19:32:39+00",18.5,21.5,,33,-823,193,61,1021,35.4,0
"2021-01-24 19:37:39+00",21.6,24.6,,32.9,-948,308,48,1020.85,35.6,0
"2021-01-24 19:42:39+00",18.0,19.0,,33.2,-746,295,46,1020.84,35.7,0
"2021-01-24 19:47:39+00",18.5,23.5,,33.3,-720,397,52,1020.88,35.6,0
"2021-01-24 19:52:39+00",19.7,22.7,,33.5,-850,288,34,1020.92,35.7,0
"2021-01-24 19:57:39+00",18.9,20.9,,33.5,-838,217,62,1020.92,35.7,0
"2021-01-24 20:02:39+00",19.5,24.5,,33.7,-840,352,53,1020.85,36,0
"2021-01-24 20:07:39+00",16.4,19.4,,33.4,-691,308,55,1020.88,35.5,0
"2021-01-24 20:12:39+00",19.4,22.4,,33.1,-815,310,43,1020.92,34.9,0
"2021-01-24 20:17:39+00",21.8,22.8,,33.1,-959,264,39,1020.79,34.7,0
"2021-01-24 20:22:39+00",16.9,19.9,,33.3,-724,277,48,1020.92,34.5,0
"2021-01-24 20:27:39+00",18.2,23.2,,33.3,-810,264,41,1020.86,34.7,0
"2021-01-24 20:32:39+00",21.2,23.2,,33.1,-941,228,40,1020.8,34.6,0
"2021-01-24 20:37:39+00",20.7,23.7,,33.1,-879,308,48,1020.74,34.6,0
"2021-01-24 20:42:39+00",19.3,22.3,,33.4,-774,428,50,1020.62,34.6,0
"2021-01-24 20:47:39+00",19.1,21.1,,33.3,-821,285,36,1020.66,34.4,0
"2021-01-24 20:52:39+00",20.1,22.1,,33.3,-820,367,37,1020.54,34.4,0
"2021-01-24 20:57:39+00",20.2,23.2,,33.2,-831,400,36,1020.43,34.2,0
"2021-01-24 21:02:39+00",18.2,22.2,,33.3,-726,397,57,1020.4,34,0
"2021-01-24 21:07:39+00",20.3,23.3,,33.3,-756,527,66,1020.37,33.9,0
"2021-01-24 21:12:39+00",20.4,23.4,,33.3,-782,487,38,1020.41,33.5,0
"2021-01-24 21:17:39+00",20.2,23.2,,33.2,-752,507,65,1020.57,33.2,0
"2021-01-24 21:22:39+00",18.4,21.4,,33.2,-663,502,72,1020.58,33,0
"2021-01-24 21:27:39+00",18.1,20.1,,33.3,-695,438,27,1020.63,33,0
"2021-01-24 21:32:39+00",16.7,17.7,,33.2,-618,414,34,1020.75,32.9,0
"2021-01-24 21:37:39+00",16.8,18.8,,33.2,-636,395,30,1020.73,32.9,0
"2021-01-24 21:42:39+00",12.9,14.9,,33.1,-472,340,51,1020.77,32.8,0
"2021-01-24 21:47:39+00",15.2,16.2,,33.1,-546,414,29,1020.76,32.6,0
"2021-01-24 21:52:39+00",11.6,14.6,,33,-437,285,40,1020.82,32.5,0
"2021-01-24 21:57:39+00",12.9,14.9,,32.9,-494,298,31,1020.96,32.4,0
"2021-01-24 22:02:39+00",10.8,12.8,,32.9,-437,223,26,1021.02,32.2,0
"2021-01-24 22:07:39+00",15.1,16.1,,32.9,-612,318,26,1021.02,32.2,0
"2021-01-24 22:12:39+00",12.9,15.9,,32.8,-506,256,50,1021.01,32.2,0
"2021-01-24 22:17:39+00",11.6,15.6,,32.7,-495,205,42,1021.3,32.2,0
"2021-01-24 22:22:39+00",15.0,16.0,,32.8,-616,284,30,1021.35,32.2,0
"2021-01-24 22:27:39+00",14.2,17.2,,32.8,-601,253,12,1021.46,32.3,0
"2021-01-24 22:32:39+00",14.3,16.3,,32.9,-574,286,31,1021.33,32.4,0
"2021-01-24 22:37:39+00",15.1,16.1,,32.9,-615,317,22,1021.48,32.4,0
"2021-01-24 22:42:39+00",13.8,15.8,,32.8,-534,323,18,1021.35,32.4,0
"2021-01-24 22:47:39+00",14.6,17.6,,32.9,-549,369,17,1021.25,32.4,0
"2021-01-24 22:52:39+00",10.8,13.8,,32.8,-414,226,17,1021.3,32.4,0
"2021-01-24 22:57:39+00",10.5,11.5,,32.8,-451,185,18,1021.32,32.4,0
"2021-01-24 23:02:39+00",9.8,11.8,,32.8,-403,188,29,1021.32,32.4,0
"2021-01-24 23:07:39+00",11.7,13.7,,32.8,-433,273,47,1021.41,32.4,0
"2021-01-24 23:12:39+00",11.0,14.0,,32.8,-431,264,42,1021.39,32.4,0
"2021-01-24 23:17:39+00",11.6,13.6,,32.6,-392,326,44,1021.26,32.3,0
"2021-01-24 23:22:39+00",10.2,12.2,,32.4,-344,294,64,1021.27,32.2,0
"2021-01-24 23:27:39+00",12.2,13.2,,32.3,-470,315,23,1021.4,32.1,0
"2021-01-24 23:32:39+00",10.2,12.2,,32.2,-374,270,40,1021.28,32,0
"2021-01-24 23:37:39+00",11.9,12.9,,32.2,-464,284,24,1021.58,31.9,0
"2021-01-24 23:42:39+00",12.8,14.8,,32.3,-468,310,21,1021.49,31.9,0
"2021-01-24 23:47:39+00",11.6,12.6,,32.3,-428,318,26,1021.43,31.9,0
"2021-01-24 23:52:39+00",11.2,12.2,,32.3,-420,275,24,1021.57,31.9,0
"2021-01-24 23:57:39+00",8.9,10.9,,32.2,-338,205,20,1021.47,31.9,0
